LUSAT (LO-19)

Last updated on Tue Aug 25 2026 00:03:13 GMT+0000 (Coordinated Universal Time)

1 20442U 90005G 26235.50831170 .00000072 00000+0 42285-4 0 9992 2 20442 98.8842 259.1639 0011736 14.2970 345.8543 14.34139286912048
UTC large
Height (km)
Speed (km/s)
/
Latitude / Longitude
Inclination (degrees)
Orbital Period (minutes)
Azimuth
Elevation
Range (km)
Doppler Factor

Next 0 passes for location: London (51.5072 / 0.1276)

No passes found over London.
LUSAT (LO-19)